When you browse on this site, cookies collect data to enhance your experience and personalize the content and advertising you see.
Visit our Privacy Policy to learn more. By continuing to use the site, you agree to this use of cookies and data.
  • en France
  • Liste des pays
  • À 7 jours
  • Température de l'eau
  • Carte météo
  • Widgets météo
  • user-avatar
    Se connecter

    Météo par heure à Neuquén

    Ce jour, 20 Février, Jeudi

    Heure Température Précipitation Vent Pression Humidité
    00:00 +18°C° 0 mm 4 m/s 737 mmHg 17%
    01:00 +17°C° 0 mm 3 m/s 737 mmHg 19%
    02:00 +16°C° 0 mm 3 m/s 737 mmHg 21%
    03:00 +14°C° 0 mm 3 m/s 738 mmHg 23%
    04:00 +14°C° 0 mm 2 m/s 738 mmHg 25%
    05:00 +16°C° 0 mm 2 m/s 739 mmHg 24%
    06:00 +17°C° 0 mm 3 m/s 739 mmHg 22%
    07:00 +19°C° 0 mm 3 m/s 740 mmHg 20%
    08:00 +20°C° 0 mm 3 m/s 740 mmHg 18%
    09:00 +22°C° 0 mm 3 m/s 740 mmHg 16%
    10:00 +25°C° 0 mm 4 m/s 740 mmHg 14%
    11:00 +26°C° 0 mm 4 m/s 740 mmHg 13%
    12:00 +27°C° 0 mm 4 m/s 740 mmHg 12%
    13:00 +28°C° 0 mm 4 m/s 740 mmHg 10%
    14:00 +28°C° 0 mm 4 m/s 739 mmHg 10%
    15:00 +28°C° 0 mm 5 m/s 739 mmHg 10%
    16:00 +28°C° 0 mm 5 m/s 738 mmHg 9%
    17:00 +27°C° 0 mm 6 m/s 739 mmHg 11%
    18:00 +24°C° 0 mm 6 m/s 739 mmHg 12%
    19:00 +22°C° 0 mm 6 m/s 739 mmHg 13%
    20:00 +21°C° 0 mm 6 m/s 740 mmHg 14%
    21:00 +20°C° 0 mm 6 m/s 740 mmHg 15%
    22:00 +19°C° 0 mm 6 m/s 741 mmHg 16%
    23:00 +17°C° 0 mm 6 m/s 741 mmHg 21%

    Demain, 21 Février, Vendredi

    Heure Température Précipitation Vent Pression Humidité
    00:00 +16°C° 0 mm 7 m/s 742 mmHg 27%
    01:00 +15°C° 0 mm 7 m/s 742 mmHg 33%
    08:00 +16°C° 0 mm 6 m/s 744 mmHg 44%
    09:00 +19°C° 0 mm 6 m/s 744 mmHg 36%
    10:00 +21°C° 0 mm 6 m/s 743 mmHg 28%
    11:00 +22°C° 0 mm 6 m/s 743 mmHg 25%
    12:00 +23°C° 0 mm 6 m/s 742 mmHg 22%
    13:00 +26°C° 0 mm 6 m/s 742 mmHg 19%
    14:00 +26°C° 0 mm 6 m/s 741 mmHg 18%
    15:00 +26°C° 0 mm 6 m/s 740 mmHg 17%
    16:00 +27°C° 0 mm 6 m/s 740 mmHg 15%
    17:00 +24°C° 0 mm 6 m/s 740 mmHg 17%
    18:00 +23°C° 0 mm 5 m/s 740 mmHg 18%
    19:00 +21°C° 0 mm 5 m/s 740 mmHg 19%
    20:00 +20°C° 0 mm 5 m/s 740 mmHg 22%
    21:00 +20°C° 0 mm 5 m/s 740 mmHg 25%
    22:00 +19°C° 0 mm 5 m/s 741 mmHg 28%
    23:00 +17°C° 0 mm 5 m/s 740 mmHg 30%

    Après-demain, 22 Février, Samedi

    Heure Température Précipitation Vent Pression Humidité
    00:00 +17°C° 0 mm 5 m/s 740 mmHg 31%
    01:00 +16°C° 0 mm 5 m/s 740 mmHg 33%
    02:00 +15°C° 0 mm 4 m/s 740 mmHg 36%
    03:00 +15°C° 0 mm 4 m/s 739 mmHg 40%
    04:00 +14°C° 0 mm 4 m/s 739 mmHg 43%
    05:00 +15°C° 0 mm 5 m/s 739 mmHg 41%
    06:00 +16°C° 0 mm 6 m/s 739 mmHg 40%
    07:00 +17°C° 0 mm 6 m/s 739 mmHg 38%
    08:00 +20°C° 0 mm 7 m/s 739 mmHg 33%
    09:00 +23°C° 0 mm 7 m/s 739 mmHg 27%
    10:00 +26°C° 0 mm 8 m/s 738 mmHg 21%
    11:00 +28°C° 0 mm 8 m/s 737 mmHg 19%
    12:00 +29°C° 0 mm 8 m/s 737 mmHg 17%
    13:00 +32°C° 0 mm 9 m/s 736 mmHg 15%
    14:00 +32°C° 0 mm 8 m/s 735 mmHg 16%
    15:00 +32°C° 0 mm 8 m/s 734 mmHg 16%
    16:00 +32°C° 0 mm 8 m/s 733 mmHg 16%
    17:00 +29°C° 0 mm 7 m/s 733 mmHg 18%
    18:00 +28°C° 0 mm 6 m/s 733 mmHg 21%
    19:00 +26°C° 0 mm 5 m/s 732 mmHg 23%
    20:00 +25°C° 0 mm 5 m/s 732 mmHg 24%
    21:00 +25°C° 0 mm 5 m/s 732 mmHg 26%
    22:00 +23°C° 0 mm 5 m/s 732 mmHg 27%
    23:00 +23°C° 0 mm 5 m/s 731 mmHg 29%

    23 Février, Dimanche

    Heure Température Précipitation Vent Pression Humidité
    00:00 +22°C° 0 mm 5 m/s 731 mmHg 30%
    01:00 +22°C° 0 mm 5 m/s 730 mmHg 32%
    02:00 +21°C° 0 mm 4 m/s 730 mmHg 35%
    03:00 +20°C° 0 mm 3 m/s 730 mmHg 38%
    04:00 +18°C° 0 mm 2 m/s 729 mmHg 42%
    05:00 +20°C° 0 mm 2 m/s 729 mmHg 38%
    06:00 +23°C° 0 mm 2 m/s 729 mmHg 35%
    07:00 +24°C° 0 mm 2 m/s 729 mmHg 32%
    08:00 +27°C° 0 mm 3 m/s 729 mmHg 26%
    09:00 +30°C° 0 mm 4 m/s 729 mmHg 20%
    10:00 +33°C° 0 mm 6 m/s 729 mmHg 15%
    11:00 +35°C° 0 mm 6 m/s 728 mmHg 13%
    12:00 +36°C° 0 mm 6 m/s 728 mmHg 11%
    13:00 +39°C° 0 mm 7 m/s 727 mmHg 9%
    14:00 +39°C° 0 mm 8 m/s 727 mmHg 8%
    15:00 +39°C° 0 mm 9 m/s 726 mmHg 7%
    16:00 +39°C° 0 mm 10 m/s 726 mmHg 7%
    17:00 +36°C° 0 mm 10 m/s 726 mmHg 8%
    18:00 +33°C° 0 mm 10 m/s 726 mmHg 9%
    19:00 +29°C° 0 mm 9 m/s 726 mmHg 11%
    20:00 +28°C° 0 mm 9 m/s 726 mmHg 13%
    21:00 +26°C° 0 mm 10 m/s 727 mmHg 15%
    22:00 +24°C° 0 mm 10 m/s 727 mmHg 18%
    23:00 +22°C° 0 mm 9 m/s 727 mmHg 21%

    24 Février, Lundi

    Heure Température Précipitation Vent Pression Humidité
    00:00 +21°C° 0 mm 9 m/s 727 mmHg 24%
    01:00 +20°C° 0 mm 8 m/s 727 mmHg 27%
    02:00 +20°C° 0 mm 7 m/s 727 mmHg 27%
    03:00 +18°C° 0 mm 7 m/s 727 mmHg 28%
    04:00 +17°C° 0 mm 7 m/s 727 mmHg 28%
    05:00 +18°C° 0 mm 7 m/s 728 mmHg 28%
    06:00 +20°C° 0 mm 8 m/s 728 mmHg 27%
    07:00 +21°C° 0 mm 9 m/s 728 mmHg 26%
    08:00 +23°C° 0 mm 9 m/s 728 mmHg 23%
    09:00 +24°C° 0 mm 9 m/s 728 mmHg 20%
    10:00 +27°C° 0 mm 9 m/s 728 mmHg 17%
    11:00 +28°C° 0 mm 10 m/s 728 mmHg 16%
    12:00 +29°C° 0 mm 11 m/s 727 mmHg 16%
    13:00 +29°C° 0 mm 11 m/s 727 mmHg 15%
    14:00 +29°C° 0 mm 12 m/s 726 mmHg 16%
    15:00 +29°C° 0 mm 12 m/s 726 mmHg 17%
    16:00 +29°C° 0 mm 12 m/s 725 mmHg 17%
    17:00 +28°C° 0 mm 12 m/s 726 mmHg 21%
    18:00 +26°C° 0 mm 11 m/s 726 mmHg 25%
    19:00 +23°C° 0 mm 11 m/s 726 mmHg 29%
    20:00 +22°C° 0 mm 10 m/s 726 mmHg 31%
    21:00 +22°C° 0 mm 10 m/s 727 mmHg 33%
    22:00 +21°C° 0 mm 9 m/s 727 mmHg 35%
    23:00 +21°C° 0 mm 9 m/s 726 mmHg 36%

    25 Février, Mardi

    Heure Température Précipitation Vent Pression Humidité
    00:00 +19°C° 0 mm 9 m/s 726 mmHg 37%
    01:00 +19°C° 0 mm 10 m/s 726 mmHg 37%
    02:00 +19°C° 0 mm 9 m/s 726 mmHg 40%
    03:00 +18°C° 0 mm 8 m/s 726 mmHg 43%
    04:00 +17°C° 0 mm 8 m/s 726 mmHg 46%
    05:00 +17°C° 0 mm 8 m/s 727 mmHg 44%
    06:00 +18°C° 0 mm 9 m/s 728 mmHg 41%
    07:00 +18°C° 0 mm 10 m/s 728 mmHg 39%
    08:00 +19°C° 0 mm 11 m/s 728 mmHg 32%
    09:00 +19°C° 0 mm 11 m/s 728 mmHg 26%
    10:00 +21°C° 0 mm 12 m/s 729 mmHg 19%
    11:00 +22°C° 0 mm 11 m/s 729 mmHg 17%
    12:00 +23°C° 0 mm 10 m/s 729 mmHg 15%
    13:00 +23°C° 0 mm 10 m/s 728 mmHg 13%
    14:00 +24°C° 0 mm 10 m/s 728 mmHg 13%
    15:00 +24°C° 0 mm 10 m/s 728 mmHg 12%
    16:00 +24°C° 0 mm 10 m/s 728 mmHg 11%
    17:00 +23°C° 0 mm 10 m/s 728 mmHg 13%
    18:00 +22°C° 0 mm 10 m/s 729 mmHg 15%
    19:00 +19°C° 0 mm 10 m/s 729 mmHg 17%
    20:00 +18°C° 0 mm 10 m/s 730 mmHg 22%
    21:00 +16°C° 0 mm 11 m/s 730 mmHg 26%
    22:00 +14°C° 0 mm 11 m/s 731 mmHg 30%
    23:00 +13°C° 0 mm 10 m/s 731 mmHg 32%
    Voir plus